Probability
0 0 0 0 0 0 0 0 0 0 0 0 0 0 0 0 0 0 0 0 0 0 0 0 0 0 0 0 0 0 0 0 0 0 0 0 0 0 0 0 0 0 0 0
0 0 0 0 0 0 0 0 0 0 0 0 0 0 0 0 0 0 0 0 0 0 0 0 0 0 0 0 0 0 0 0 0 0 0 0 0 0 0 0 0 0 0 0
0 0 0 0 0 0 0 0 0 0 0 0 0 0 0 0 0 0 0 0 0 0 0 0 0 0 0 0 0 0 0 0 0 0 0 0 0 0 0 0 0 0 0 0
0 0 0 0 0 0 0 0 0 0 0 0 0 0 0 0 0 0 0 0 0 0 0 0 0 0 0 0 0 0 0 0 0 0 0 0 0 0 0 0 0 0 0 0
0 0 0 0 0 0 0 0 0 0 0 0 0 0 0 0 0 0 0 0 0 0 0 0 0 0 0 0 0 0 0 0 0 0 0 0 0 0 0 0 0 0 0 0
0 0 0 0 0 0 0 0 0 0 0 0 0 0 0 0 0 0 0 0 0 0 0 0 0 0 0 0 0 0 0 0 0 0 0 0 0 0 0 0 0 0 0 0
0 0 0 0 0 0 0 0 0 0 0 0 0 0 0 0 0 0 0 0 0 0 0 0 0 0 0 0 0 0 0 0 0 0 0 0 0 0 0 0 0 0 0 0
0 0 0 0 0 0 0 0 0 0 0 0 0 0 0 0 0 0 0 0 0 0 0 0 0 0 0 0 0 0 0 0 0 0 0 0 0 0 0 0 0 0 0 0
0 0 0 0 0 0 0 0 0 0 0 0 0 0 0 0 0 0 0 0 0 0 0 0 0 0 0 0 0 0 0 0 0 0 0 0 0 0 0 0 0 0 0 0
0 0 0 0 0 0 0 0 0 0 0 0 0 0 0 0 0 0 0 0 0 0 0 0 0 0 0 0 0 0 0 0 0 0 0 0 0 0 0 0 0 0 0 0
0 0 0 0 0 0 0 0 0 0 0 0 0 0 0 0 0 0 0 0 0 0 0 0 0 0 0 0 0 0 0 0 0 0 0 0 0 0 0 0 0 0 0 0
0 0 0 0 0 0 0 0 0 0 0 0 0 0 0 0 0 0 0 0 0 0 0 0 0 0 0 0 0 0 0 0 0 0 0 0 0 0 0 0 0 0 0 0
0 0 0 0 0 0 0 0 0 0 0 0 0 0 0 0 0 0 0 0 0 0 0 0 0 0 0 0 0 0 0 0 0 0 0 0 0 0 0 0 0 0 0 0
0 0 0 0 0 0 0 0 0 0 0 0 0 0 0 0 0 0 0 0 0 0 0 0 0 0 0 0 0 0 0 0 0 0 0 0 0 0 0 0 0 0 0 0
0 0 0 0 0 0 0 0 0 0 0 0 0 0 0 0 0 0 0 0 0 0 0 0 0 0 0 0 0 0 0 0 0 0 0 0 0 0 0 0 0 0 0 0
0 0 0 0 0 0 0 0 0 0 0 0 0 0 0 0 0 0 0 0 0 0 0 0 0 0 0 0 0 0 0 0 0 0 0 0 0 0 0 0 0 0 0 0
0 0 0 0 0 0 0 0 0 0 0 0 0 0 0 0 0 0 0 0 0 0 0 0 0 0 0 0 0 0 0 0 0 0 0 0 0 0 0 0 0 0 0 0
0 0 0 0 0 0 0 0 0 0 0 0 0 0 0 0 0 0 0 0 0 0 0 0 0 0 0 0 0 0 0 0 0 0 0 0 0 0 0 0 0 0 0 0
0 0 0 0 0 0 0 0 0 0 0 0 0 0 0 0 0 0 0 0 0 0 0 0 0 0 0 0 0 0 0 0 0 0 0 0 0 0 0 0 0 0 0 0
0 0 0 0 0 0 0 0 0 0 0 0 0 0 0 0 0 0 0 0 0 0 0 0 0 0 0 0 0 0 0 0 0 0 0 0 0 0 0 0 0 0 0 0
0 0 0 0 0 0 0 0 0 0 0 0 0 0 0 0 0 0 0 0 0 0 0 0 0 0 0 0 0 0 0 0 0 0 0 0 0 0 0 0 0 0 0 0
0 0 0 0 0 0 0 0 0 0 0 0 0 0 0 0 0 0 0 0 0 0 0 0 0 0 0 0 0 0 0 0 0 0 0 0 0 0 0 0 0 0 0 0
0 0 0 0 0 0 0 0 0 0 0 0 0 0 0 0 0 0 0 0 0 0 0 0 0 0 0 0 0 0 0 0 0 0 0 0 0 0 0 0 0 0 0 0
0 0 0 0 0 0 0 0 0 0 0 0 0 0 0 0 0 0 0 0 0 0 0 0 0 0 0 0 0 0 0 0 0 0 0 0 0 0 0 0 0 0 0 0
0 0 0 0 0 0 0 0 0 0 0 0 0 0 0 0 0 0 0 0 0 0 0 0 0 0 0 0 0 0 0 0 0 0 0 0 0 0 0 0 0 0 0 0
0 0 0 0 0 0 0 0 0 0 0 0 0 0 0 0 0 0 0 0 0 0 0 0 0 0 0 0 0 0 0 0 0 0 0 0 0 0 0 0 0 0 0 0
0 0 0 0 0 0 0 0 0 0 0 0 0 0 0 0 0 0 0 0 0 0 0 0 0 0 0 0 0 0 0 0 0 0 0 0 0 0 0 0 0 0 0 0
Height
5850 5847 5845 5842 5840 5837 5834 5830 5827 5824 5821 5818 5815 5811 5806 5802 5798 5793 5788 5783 5778 5773 5768 5763 5759 5756 5752 5749 5745 5741 5736 5732 5727 5722 5717 5713 5709 5706 5703 5699 5696 5693 5690 5687
5846 5842 5840 5837 5834 5831 5827 5823 5820 5817 5814 5810 5805 5800 5796 5791 5786 5781 5776 5771 5766 5761 5756 5751 5747 5744 5741 5738 5735 5731 5728 5723 5719 5715 5710 5707 5704 5701 5697 5694 5692 5689 5686 5684
5842 5839 5836 5832 5829 5825 5821 5816 5813 5809 5806 5801 5795 5789 5784 5779 5773 5767 5762 5757 5752 5747 5743 5738 5734 5731 5728 5726 5724 5721 5718 5715 5711 5707 5703 5701 5698 5695 5692 5690 5688 5686 5684 5682
5835 5833 5829 5826 5821 5817 5812 5808 5804 5799 5794 5789 5783 5777 5770 5764 5757 5751 5746 5740 5735 5730 5726 5722 5719 5716 5714 5713 5711 5709 5707 5705 5702 5699 5696 5694 5692 5690 5688 5685 5684 5683 5681 5680
5827 5824 5821 5817 5812 5806 5801 5797 5793 5788 5781 5775 5769 5763 5757 5749 5742 5735 5728 5722 5717 5712 5708 5704 5701 5699 5699 5698 5698 5697 5696 5694 5692 5690 5688 5687 5686 5684 5683 5681 5680 5679 5679 5677
5820 5815 5811 5810 5804 5796 5790 5784 5780 5773 5767 5760 5753 5746 5741 5733 5726 5718 5711 5703 5697 5692 5687 5684 5681 5680 5680 5681 5681 5682 5682 5682 5681 5680 5679 5679 5678 5678 5677 5676 5676 5675 5675 5675
5813 5807 5801 5797 5791 5786 5781 5774 5765 5758 5750 5743 5734 5726 5719 5710 5702 5694 5687 5680 5673 5667 5663 5659 5656 5656 5656 5659 5662 5664 5666 5667 5669 5669 5669 5669 5670 5671 5671 5671 5671 5671 5671 5671
5804 5798 5794 5787 5780 5774 5767 5759 5750 5742 5733 5724 5715 5706 5696 5688 5679 5670 5662 5654 5646 5639 5634 5629 5625 5625 5628 5633 5638 5643 5647 5651 5654 5657 5658 5659 5661 5663 5664 5664 5665 5666 5667 5668
5795 5790 5782 5774 5767 5760 5752 5744 5734 5724 5714 5703 5694 5684 5674 5664 5655 5646 5637 5629 5622 5615 5610 5604 5599 5597 5600 5607 5613 5620 5626 5633 5638 5642 5645 5648 5652 5654 5657 5658 5659 5661 5663 5664
5784 5778 5771 5764 5756 5747 5737 5727 5716 5704 5692 5680 5669 5659 5649 5640 5631 5623 5616 5610 5603 5597 5591 5585 5579 5576 5577 5582 5590 5598 5606 5614 5621 5627 5632 5636 5641 5646 5649 5651 5653 5655 5658 5660
5775 5768 5761 5752 5741 5731 5719 5707 5695 5683 5671 5657 5645 5636 5627 5620 5613 5607 5602 5596 5589 5582 5576 5571 5565 5561 5559 5563 5569 5578 5587 5596 5605 5612 5618 5624 5630 5636 5641 5644 5647 5650 5652 5655
5766 5757 5748 5737 5725 5713 5700 5686 5673 5660 5649 5638 5625 5615 5609 5603 5598 5593 5588 5582 5575 5568 5562 5557 5552 5548 5546 5547 5553 5560 5570 5579 5588 5597 5605 5612 5619 5626 5632 5637 5640 5644 5647 5650
5753 5743 5731 5719 5706 5692 5678 5665 5652 5639 5626 5617 5609 5601 5595 5589 5584 5578 5572 5566 5560 5554 5548 5544 5539 5536 5534 5534 5539 5546 5555 5564 5573 5583 5592 5601 5608 5616 5623 5629 5633 5637 5641 5645
5739 5727 5715 5701 5687 5672 5657 5643 5632 5621 5612 5604 5597 5590 5583 5577 5570 5563 5556 5550 5544 5539 5534 5530 5527 5525 5523 5523 5527 5533 5542 5551 5561 5571 5581 5590 5598 5607 5615 5621 5626 5631 5636 5640
5726 5712 5698 5683 5667 5653 5638 5626 5617 5609 5601 5594 5586 5578 5571 5563 5556 5549 5541 5534 5528 5523 5519 5515 5513 5513 5511 5512 5516 5523 5531 5541 5550 5560 5570 5580 5589 5597 5606 5614 5620 5625 5630 5634
5712 5697 5680 5663 5649 5636 5624 5614 5606 5598 5590 5582 5575 5566 5558 5549 5541 5533 5525 5517 5510 5506 5504 5501 5500 5500 5500 5502 5506 5513 5522 5531 5541 5551 5561 5571 5580 5589 5598 5606 5613 5619 5624 5629
5694 5678 5662 5647 5635 5624 5614 5605 5596 5588 5581 5572 5564 5554 5545 5535 5525 5516 5507 5499 5492 5489 5487 5486 5487 5488 5489 5492 5498 5505 5514 5524 5533 5543 5553 5563 5573 5582 5591 5600 5607 5614 5619 5624
5677 5661 5645 5632 5621 5613 5605 5597 5589 5581 5572 5563 5553 5543 5532 5520 5509 5498 5489 5480 5475 5471 5470 5471 5473 5476 5479 5483 5490 5499 5508 5518 5528 5538 5548 5558 5567 5577 5585 5594 5601 5607 5613 5618
5664 5649 5636 5625 5615 5606 5597 5590 5582 5574 5565 5555 5543 5532 5519 5506 5494 5482 5471 5463 5458 5455 5455 5457 5461 5465 5470 5476 5484 5494 5504 5514 5524 5534 5544 5553 5563 5571 5580 5588 5595 5602 5608 5613
5654 5640 5629 5619 5609 5601 5592 5584 5577 5568 5558 5547 5535 5522 5509 5495 5482 5470 5459 5451 5445 5443 5444 5447 5451 5457 5463 5471 5481 5491 5501 5511 5521 5531 5541 5550 5559 5568 5575 5583 5590 5596 5602 5608
5644 5632 5621 5612 5604 5596 5588 5580 5572 5563 5553 5541 5527 5514 5501 5488 5475 5463 5453 5445 5440 5438 5439 5441 5446 5453 5460 5469 5479 5490 5500 5510 5520 5530 5539 5548 5556 5564 5571 5578 5585 5591 5597 5603
5635 5624 5614 5606 5598 5591 5584 5576 5568 5559 5548 5536 5523 5511 5498 5485 5473 5461 5452 5445 5440 5438 5438 5441 5446 5453 5461 5471 5481 5491 5501 5511 5520 5529 5538 5547 5554 5561 5567 5574 5580 5586 5592 5598
5628 5617 5608 5600 5594 5587 5580 5573 5565 5556 5545 5533 5521 5509 5497 5484 5473 5462 5454 5448 5443 5441 5442 5445 5450 5457 5465 5475 5484 5494 5503 5513 5522 5530 5539 5546 5552 5558 5564 5570 5576 5582 5587 5593
5622 5612 5604 5597 5590 5584 5578 5571 5563 5554 5544 5533 5522 5510 5498 5488 5478 5469 5461 5455 5451 5450 5451 5454 5459 5465 5472 5481 5489 5498 5507 5515 5524 5532 5539 5545 5551 5556 5562 5567 5572 5578 5583 5589
5616 5607 5600 5593 5587 5582 5576 5569 5562 5554 5544 5534 5524 5513 5503 5494 5485 5477 5471 5466 5464 5463 5463 5465 5469 5474 5480 5488 5495 5503 5511 5519 5526 5533 5540 5545 5551 5556 5561 5566 5572 5577 5582 5587
5611 5603 5596 5590 5584 5578 5573 5567 5560 5552 5544 5535 5526 5517 5509 5501 5494 5487 5482 5479 5476 5475 5476 5477 5480 5484 5489 5495 5502 5509 5516 5523 5530 5536 5541 5546 5552 5557 5562 5567 5573 5577 5582 5586
5608 5600 5594 5589 5584 5578 5573 5567 5560 5552 5544 5535 5528 5521 5514 5508 5503 5497 5492 5489 5488 5487 5487 5488 5490 5494 5498 5503 5509 5515 5521 5527 5533 5538 5543 5548 5553 5558 5563 5569 5573 5578 5582 5586
Wind_Speed
16 18 19 20 21 23 26 29 30 30 30 31 32 34 36 38 40 42 44 45 46 47 48 48 48 46 43 40 39 38 37 37 36 35 32 31 29 28 26 24 23 22 21 19
18 21 22 24 25 27 29 30 30 31 32 34 37 39 41 43 45 47 48 49 49 50 50 50 49 48 46 42 39 38 37 36 35 33 31 29 28 26 24 22 20 19 17 15
19 21 23 26 28 28 28 29 31 34 36 38 41 45 47 48 51 53 54 54 54 53 52 51 50 49 47 45 41 39 37 36 34 32 29 28 27 24 22 20 18 16 14 12
24 24 26 28 28 29 30 33 34 37 40 42 45 48 52 54 56 59 60 60 59 59 58 56 54 52 49 47 44 41 39 36 34 32 29 27 25 23 20 17 16 15 13 11
30 31 31 32 33 35 38 40 39 42 44 47 50 53 56 58 61 64 65 66 66 65 64 62 60 57 54 50 47 44 41 38 36 32 29 26 24 22 19 16 15 14 14 12
32 34 36 37 38 40 43 46 46 47 50 54 57 60 62 64 65 67 69 70 71 70 69 67 65 62 60 55 51 47 43 40 37 33 30 26 24 21 19 16 14 14 13 13
35 38 41 42 42 44 46 49 52 55 57 60 63 66 69 71 73 74 76 76 76 76 75 73 71 68 64 59 54 50 46 42 38 35 32 27 24 22 20 17 15 13 13 12
38 40 42 43 46 48 50 53 56 59 62 66 69 72 74 76 78 78 78 77 76 74 72 72 71 69 65 60 56 52 49 44 39 36 33 29 26 24 21 18 15 14 13 11
39 41 44 46 49 52 54 57 61 65 68 72 74 76 78 78 77 75 73 67 62 60 59 58 58 59 58 56 54 52 51 47 41 37 34 31 28 25 22 19 16 14 12 11
40 43 45 48 52 56 60 64 68 71 74 76 78 79 78 73 68 61 53 50 49 48 48 46 46 47 48 50 52 52 50 46 43 39 36 33 31 28 24 20 17 15 14 13
42 45 49 53 58 62 66 70 72 74 75 75 75 70 64 56 47 42 42 43 43 44 44 42 41 39 39 44 46 50 48 45 44 41 37 35 34 30 25 22 19 18 17 15
46 51 56 60 65 69 73 75 75 75 71 66 61 54 46 41 40 40 41 42 44 44 44 42 40 37 35 38 42 45 46 45 44 42 39 37 36 33 28 24 21 20 19 18
53 58 63 69 72 75 77 76 72 66 60 53 47 43 42 42 43 45 45 44 44 43 43 41 38 35 34 34 37 40 42 43 43 41 39 38 38 35 31 27 24 23 22 20
61 66 71 74 77 77 75 70 62 54 48 45 43 42 43 44 45 46 46 46 45 43 42 41 37 33 31 32 34 37 39 40 40 40 40 39 39 37 33 29 26 25 24 23
66 71 74 77 77 73 67 59 51 45 42 41 42 43 44 46 47 48 48 48 47 44 41 38 34 30 29 29 32 36 38 39 38 39 39 38 39 39 36 32 29 28 27 25
70 74 77 77 73 66 58 50 44 41 41 42 44 45 48 50 51 52 51 49 47 43 40 36 31 29 27 27 31 34 37 37 37 39 38 38 40 40 38 34 31 29 27 25
76 78 78 74 66 57 49 44 42 42 43 44 46 49 52 54 55 53 51 49 46 42 38 33 30 28 25 26 30 34 36 37 37 38 37 39 40 39 38 35 32 30 28 26
76 75 71 65 57 50 44 41 41 42 44 47 49 52 54 55 54 53 50 46 41 37 34 31 27 25 23 26 31 34 35 36 35 36 37 38 39 39 38 36 33 31 29 26
73 68 62 56 50 45 41 40 41 42 45 48 51 54 55 55 53 51 47 41 36 30 27 25 23 21 22 27 31 34 34 35 35 37 37 37 37 38 38 36 34 31 29 26
67 61 55 49 43 39 38 39 40 42 46 49 53 54 53 52 50 46 41 35 28 22 18 18 18 19 24 28 32 34 34 33 35 36 35 35 36 36 36 36 34 31 29 27
61 55 49 43 37 35 36 37 39 43 46 49 51 51 51 49 46 42 36 28 20 13 10 11 15 20 26 30 34 34 34 34 36 36 34 33 33 34 34 34 34 33 31 28
57 51 44 38 33 32 34 36 39 43 47 49 49 48 48 47 43 38 32 25 17 10 3 9 16 22 27 32 34 35 35 34 36 35 33 31 30 31 31 32 34 34 32 29
54 47 40 34 30 31 32 34 38 42 46 47 47 47 45 43 41 36 28 21 15 8 7 13 20 25 30 33 34 35 35 35 35 33 31 29 27 27 28 29 31 32 31 29
50 44 37 31 28 29 30 32 36 40 44 45 44 43 42 39 36 33 27 21 16 13 14 19 23 27 31 32 33 34 35 35 34 31 28 25 24 24 25 27 27 27 27 26
48 41 33 28 27 27 29 32 35 38 41 41 40 39 38 35 32 29 25 20 17 17 18 21 24 28 29 31 33 35 35 35 32 28 25 22 22 24 25 25 24 23 23 22
45 38 31 27 27 27 29 31 34 38 39 39 37 35 32 29 28 26 23 19 17 16 18 21 24 26 29 31 33 33 33 32 29 26 23 22 22 24 25 24 23 22 21 19
42 35 28 23 23 24 26 29 32 36 38 37 35 32 28 25 24 24 21 19 17 16 17 19 22 25 28 30 31 30 29 28 26 24 22 22 23 25 24 23 22 21 20 18
Wind_Direction
297 295 297 299 295 294 293 294 293 295 297 302 304 303 301 301 300 299 299 299 299 299 298 298 298 299 299 300 302 304 307 310 313 313 308 304 302 302 303 303 305 307 303 295
298 298 301 299 298 298 295 294 293 295 298 301 301 299 299 298 298 297 297 296 296 295 295 294 295 296 297 297 298 300 302 305 308 309 305 302 300 301 300 301 305 308 306 294
302 299 297 298 302 301 298 294 293 293 294 294 294 294 294 294 294 294 294 294 294 294 293 292 292 293 294 295 295 295 296 298 301 303 300 297 297 297 296 297 300 302 303 300
311 309 312 309 308 305 301 297 296 295 294 292 291 292 293 293 293 293 293 293 292 292 291 290 288 288 289 290 290 290 290 290 293 295 293 290 291 290 289 290 293 295 297 297
318 317 314 311 311 309 305 300 299 297 295 293 292 291 290 289 290 290 291 291 290 289 287 286 284 282 282 283 284 284 284 283 284 287 284 281 282 280 280 281 285 288 290 290
316 314 311 309 309 305 302 300 299 295 292 290 290 290 290 289 288 288 288 288 287 286 284 282 280 279 278 276 275 275 276 276 275 276 274 270 270 269 269 271 276 280 283 283
310 308 305 306 303 299 295 295 296 294 294 294 294 294 294 294 293 293 292 291 290 288 285 282 279 276 273 270 267 266 266 266 266 268 264 259 258 257 258 260 266 270 275 274
303 301 300 300 299 299 299 299 299 299 298 297 296 296 296 296 295 295 294 294 293 291 289 285 280 275 269 265 260 257 255 256 258 258 254 249 246 246 247 250 256 260 264 261
303 302 303 303 304 304 304 303 302 301 299 298 298 298 298 298 297 297 297 297 297 296 295 292 284 275 267 259 253 250 246 246 249 248 245 240 236 236 238 241 245 247 246 242
308 308 308 308 308 307 306 305 304 303 302 301 300 300 300 299 299 298 298 300 302 303 304 301 292 278 264 255 248 245 242 240 239 242 238 233 229 228 230 233 233 232 228 225
312 313 312 311 311 310 309 308 306 305 303 302 302 302 301 299 298 298 299 301 303 304 304 304 300 289 268 251 243 241 239 235 232 233 229 226 223 220 221 224 222 218 215 213
317 317 316 315 314 313 312 310 309 308 307 306 305 305 303 301 300 302 303 302 302 302 301 302 300 291 274 254 239 236 235 232 227 226 222 220 217 215 214 216 215 211 209 208
322 321 320 319 318 315 313 312 312 312 312 311 310 309 307 307 306 306 306 304 301 299 298 298 297 291 277 258 240 230 228 226 224 221 217 216 213 211 209 210 208 206 205 206
326 324 322 320 317 316 316 317 318 318 316 315 314 312 311 310 308 307 306 304 301 298 296 294 292 289 278 257 238 226 222 220 217 216 215 213 210 206 205 205 203 202 203 206
326 324 322 320 319 320 321 322 322 320 318 317 316 316 314 313 312 310 308 305 301 297 294 291 286 283 275 254 234 223 218 215 214 212 211 209 207 203 201 201 200 200 202 204
327 325 323 322 323 325 325 324 324 324 324 323 321 319 318 316 314 312 309 305 300 295 290 285 279 276 269 246 227 218 214 212 211 209 207 207 205 202 199 198 199 200 202 205
329 327 325 325 326 327 327 327 327 328 327 326 324 323 321 320 317 315 311 306 299 293 286 279 273 267 260 236 218 211 209 207 206 205 204 202 201 199 197 197 198 200 203 206
329 327 327 327 329 329 329 329 330 330 330 329 327 326 324 322 320 317 313 306 300 292 282 272 265 258 245 224 209 203 203 202 200 199 198 197 198 198 197 196 198 201 204 208
329 328 328 329 329 329 329 331 332 333 332 332 331 330 329 327 325 322 318 311 303 291 278 264 255 244 224 207 198 196 196 196 196 194 195 195 196 198 198 197 199 201 205 207
330 329 329 330 330 330 331 334 335 336 335 335 335 335 335 334 332 331 328 321 310 295 276 256 239 220 201 192 189 188 188 188 188 190 190 192 195 198 198 199 201 205 207 210
332 331 331 331 331 332 335 336 338 339 340 339 339 341 343 344 343 341 339 338 330 310 275 236 211 193 184 181 180 180 179 179 181 185 187 190 195 198 199 201 203 207 211 214
334 333 333 333 333 336 338 340 342 343 344 344 345 346 347 348 349 350 351 351 350 343 280 188 176 172 171 171 171 173 173 174 177 180 183 188 194 199 201 203 205 208 211 214
336 335 334 335 336 339 341 342 343 345 347 349 349 350 351 353 357 0 1 4 12 34 110 145 153 155 158 162 164 167 169 170 172 175 179 184 189 195 198 200 203 206 210 213
337 337 336 336 337 340 341 342 344 348 350 350 352 354 356 358 3 9 16 27 47 75 109 129 141 147 153 157 160 162 164 166 166 169 174 179 184 188 189 190 193 197 202 205
339 338 336 334 337 342 344 345 347 350 352 354 355 358 2 6 12 23 32 45 66 89 109 125 136 143 149 152 154 159 161 162 163 167 171 175 177 177 176 177 182 187 192 197
340 338 336 335 338 342 344 347 349 351 354 357 359 2 8 15 22 28 37 50 67 91 109 123 132 140 146 149 152 156 159 162 165 168 169 169 171 172 171 173 177 182 188 193
341 338 334 333 335 339 344 348 351 353 356 359 2 5 10 17 25 34 44 55 69 88 105 118 129 138 144 149 153 156 160 163 165 166 168 170 171 172 173 175 178 181 186 191